Zurück zum Katalog

PACE

AktivWissenschaftSSO
NORAD 58928·PAYLOAD·🇺🇸 United States

Gestartet Feb 8, 2024 von Cape Canaveral Space Force Station

Loading…

Nächste Überflüge (nächste 24 Stunden)

TLE

AktuellSource: Space-Track

Epoche: Sep 14, 2026, 07:01 UTC

1 58928U 24025A   26257.29248520  .00000278  00000-0  60022-4 0  9990
2 58928  98.0960 187.2941 0002006  16.2060 343.9208 14.65605724138989

Verfolge PACE in Echtzeit mit AllMySat

Download on the App Store